Theta_e
338 332 328 323 309 308 302 303 308 307 306 311 316 314 312 318 315 311 333 336 338 340 344 346 348 350 349 349 347 344 343 340 339 338 340 338 342 343 342 341 341 338 338 336 336 336 335 335 336
334 330 325 319 305 300 299 306 306 311 313 316 315 315 315 317 326 328 328 336 339 340 343 344 346 349 349 348 347 343 340 338 338 337 337 339 342 342 340 341 341 337 337 335 335 335 335 335 335
333 328 317 310 305 299 299 305 309 314 315 313 312 316 317 319 327 329 334 336 338 339 343 343 346 348 348 347 346 345 342 341 339 338 336 338 341 342 342 340 340 336 336 335 335 334 335 334 334
327 322 318 305 303 305 305 307 313 313 313 316 312 313 323 328 329 333 335 337 336 339 342 343 346 348 347 346 345 344 342 341 338 338 338 339 340 341 341 340 339 335 335 334 335 334 334 334 334
327 319 307 304 305 307 309 310 312 313 312 312 312 308 317 327 334 334 333 336 335 337 341 343 345 346 346 346 345 344 343 341 339 338 338 336 339 339 339 339 337 335 333 334 334 333 332 333 333
317 317 304 301 305 309 310 311 310 310 311 312 310 308 319 329 331 331 334 334 335 336 338 342 338 341 343 344 344 343 343 342 339 337 336 336 335 338 337 336 336 335 333 333 333 333 332 333 332
316 312 306 306 306 309 310 313 309 309 310 311 313 306 320 326 331 332 333 333 334 336 337 339 340 338 337 339 339 341 342 341 339 338 337 335 332 333 334 333 333 334 333 333 333 333 332 332 331
315 314 307 306 305 306 310 312 312 310 311 316 316 307 310 324 331 332 332 333 332 333 334 335 337 338 337 336 333 335 337 337 337 336 333 331 330 331 331 329 332 334 334 332 332 332 332 331 330
319 307 303 306 307 309 311 310 311 312 310 313 317 315 320 330 332 329 328 331 330 332 332 332 333 333 335 333 329 329 332 333 332 331 328 326 327 327 325 328 332 334 334 334 332 331 331 330 328
313 306 307 312 313 311 313 311 311 308 310 311 315 321 325 328 329 326 326 326 327 328 329 331 330 329 331 334 329 331 333 332 332 332 327 328 326 324 327 324 328 330 330 331 332 332 330 326 322
315 307 313 314 315 315 312 310 311 307 307 312 310 317 323 325 326 326 326 326 326 328 329 330 329 329 328 328 328 328 328 328 329 329 328 329 327 324 323 322 322 323 321 323 324 323 323 321 321
309 313 314 315 312 311 310 314 312 309 309 315 313 315 323 323 324 324 325 325 326 328 329 330 329 328 328 327 327 327 326 326 326 328 329 327 325 323 321 321 320 322 321 321 320 320 321 321 322
307 311 313 314 314 312 314 312 312 312 316 314 315 315 321 324 323 325 326 327 327 327 330 329 329 327 327 326 326 326 325 326 326 326 327 326 325 324 323 321 321 321 321 320 320 320 320 320 321
308 310 311 312 314 314 312 311 312 313 318 317 316 312 314 323 323 324 324 325 327 329 329 330 329 327 327 325 325 325 325 325 326 325 325 325 324 324 323 321 320 319 319 319 319 319 319 319 320
309 304 307 307 309 309 312 306 307 315 316 314 311 310 313 317 323 324 325 325 328 329 331 330 329 328 325 325 325 324 324 325 324 324 325 325 324 323 322 321 320 320 319 318 318 318 319 318 319
303 304 297 305 306 307 308 298 306 312 314 313 313 313 311 314 320 324 326 326 328 329 330 331 332 329 326 325 325 324 323 322 322 322 322 323 324 323 321 320 320 320 319 318 316 316 316 316 317
299 293 296 299 306 304 305 299 305 309 307 312 314 315 312 312 316 321 326 326 328 330 330 330 331 328 327 326 326 324 323 322 321 321 321 322 323 322 320 320 320 320 318 317 316 315 314 314 316
292 293 296 295 301 302 300 301 305 309 309 309 311 311 311 310 315 320 323 326 328 329 330 331 331 329 328 327 325 325 324 323 322 320 320 322 322 321 320 320 321 321 319 317 315 314 316 316 316
298 295 294 298 302 299 300 300 303 306 307 307 308 310 313 310 314 318 322 325 326 327 329 330 330 329 328 327 325 324 323 323 323 322 322 321 322 321 321 320 321 322 320 319 317 316 316 316 318
298 295 294 298 302 299 298 297 301 304 304 305 306 310 312 313 310 315 319 323 325 325 327 329 329 329 329 328 328 327 326 326 326 325 324 323 321 321 321 321 321 320 321 321 320 318 316 317 318
297 295 294 295 299 301 297 295 298 303 305 305 306 308 311 314 313 310 314 321 324 324 325 328 329 329 330 330 329 328 327 325 324 325 324 324 323 322 321 321 321 321 321 321 321 319 318 316 317
293 299 298 297 295 288 298 286 295 299 301 303 305 306 309 312 316 315 313 316 322 324 326 327 329 330 330 330 329 327 325 323 324 325 326 326 325 323 322 321 321 321 322 321 321 322 321 318 316
296 301 299 298 294 293 292 289 291 298 297 300 302 305 308 312 314 315 315 315 320 324 325 327 328 329 330 330 329 328 326 326 326 326 325 326 326 326 324 323 321 321 321 322 322 320 320 321 319
301 298 297 297 294 285 290 290 288 293 296 299 302 304 306 309 313 315 317 317 317 321 324 326 326 328 330 330 329 328 327 326 325 325 325 326 327 327 326 325 323 322 322 322 322 323 321 322 323
299 294 285 283 283 281 290 289 291 297 299 300 301 302 304 306 309 312 313 315 316 316 320 324 326 326 328 328 329 329 328 327 326 325 326 325 326 326 326 326 324 324 324 324 324 323 324 324 322
294 294 285 279 280 282 290 284 290 300 303 303 303 304 305 304 306 307 309 313 315 315 316 320 323 325 326 327 328 329 329 328 328 327 327 327 327 327 328 327 327 326 326 326 325 325 326 324 323
294 290 295 287 282 282 285 290 296 299 299 301 302 302 302 304 306 307 309 310 314 314 316 316 321 323 325 326 327 328 329 328 327 328 328 328 328 328 328 328 327 326 326 326 325 325 324 322 321
294 297 288 288 280 279 281 283 286 292 296 299 300 301 301 303 305 307 307 307 310 313 313 314 315 320 323 324 326 327 328 328 328 328 327 328 328 328 327 327 327 326 326 326 324 324 324 321 320
291 290 291 291 287 281 277 282 293 293 295 297 298 300 300 301 301 303 305 306 307 311 312 312 313 314 316 321 323 324 326 327 328 327 327 328 328 328 327 326 326 325 325 325 325 324 322 320 319
294 291 292 285 282 285 283 284 296 296 298 298 298 299 300 300 300 301 303 305 305 307 308 309 309 310 313 315 318 320 323 325 325 326 327 327 327 327 327 325 325 325 324 324 324 322 320 319 318
Wind_Speed
13 12 6 2 3 1 6 4 3 3 5 4 5 6 4 9 5 3 6 11 12 14 11 10 12 13 13 12 13 12 11 11 11 11 11 12 11 14 13 15 15 13 13 14 13 14 14 15 15
9 10 3 3 2 2 5 6 7 8 7 6 1 4 1 6 7 8 6 11 12 13 11 10 10 12 12 11 12 12 11 10 10 10 11 10 10 13 12 14 14 13 12 14 13 13 14 14 13
12 6 2 3 3 6 3 6 10 6 4 1 1 1 5 4 8 9 12 11 10 11 12 11 11 12 12 12 12 11 11 10 10 10 9 9 10 13 11 15 14 12 12 13 13 13 13 13 12
6 4 3 2 4 8 7 6 11 6 2 5 4 6 6 5 8 8 10 11 8 11 12 11 10 11 11 11 12 12 12 11 10 10 8 8 11 12 10 12 13 12 11 11 11 12 12 11 10
5 2 4 3 3 7 6 4 5 6 5 5 1 4 6 4 9 10 9 9 9 10 11 9 10 10 10 11 11 12 11 13 11 9 9 5 10 10 10 11 13 11 10 10 10 11 10 9 8
4 1 4 4 1 7 7 4 1 2 7 5 2 4 5 8 8 8 8 8 9 10 10 9 9 10 10 11 11 11 11 13 13 9 9 8 8 8 12 8 9 11 9 9 9 9 8 8 6
6 3 6 8 8 4 8 3 1 3 8 5 2 1 5 7 8 9 8 8 8 9 10 9 7 8 8 10 10 11 12 12 13 11 8 6 8 7 7 7 6 8 8 8 8 8 7 6 5
4 3 5 6 4 7 4 2 4 6 5 2 1 0 4 8 10 8 8 8 8 7 7 9 9 7 7 6 8 8 11 12 12 13 10 7 7 6 5 7 5 5 7 7 7 6 5 5 3
3 4 5 8 7 7 5 1 4 2 1 1 5 3 3 11 9 7 7 7 7 7 6 7 9 7 8 8 6 6 11 10 12 11 9 7 4 4 4 3 7 6 6 6 6 5 5 4 2
2 4 8 6 9 11 5 5 4 3 6 7 8 8 6 9 8 8 9 8 8 8 7 6 7 7 7 9 8 6 6 5 6 7 6 5 6 5 5 6 6 5 5 4 4 5 4 6 4
4 4 12 12 5 8 4 3 3 4 8 9 1 11 10 8 9 9 9 8 9 9 6 7 7 6 5 5 5 3 3 4 4 7 7 6 5 4 3 3 2 3 4 3 4 3 4 6 5
11 10 9 15 4 4 5 7 10 5 10 8 4 6 12 10 10 10 9 8 7 8 9 8 8 7 6 4 4 4 4 4 4 5 7 4 3 4 4 4 5 4 4 5 5 4 6 4 3
13 8 14 7 2 2 5 8 11 12 9 5 6 6 12 11 10 9 10 9 8 8 8 9 8 8 7 5 4 4 5 4 5 5 6 4 4 4 4 4 4 4 4 4 4 4 3 3 5
6 10 14 16 8 7 8 10 7 6 9 11 13 10 9 13 13 9 9 11 12 13 8 9 9 8 7 7 7 5 4 5 5 4 5 7 5 5 4 4 4 4 4 4 4 4 4 4 4
14 11 12 12 11 7 4 12 12 15 12 15 10 8 10 10 13 15 11 10 11 8 9 8 10 9 8 8 7 5 5 5 5 4 7 7 6 6 6 5 5 5 4 5 4 3 2 3 4
7 10 13 10 13 11 7 16 10 11 16 18 16 11 10 12 12 12 11 9 12 11 14 13 11 12 9 8 7 5 5 5 5 5 5 7 7 7 6 5 5 5 5 5 3 4 4 5 5
14 14 17 14 15 10 15 7 8 14 13 15 16 15 10 10 11 11 14 13 14 15 14 14 14 12 11 8 7 6 7 5 5 5 5 7 7 7 5 5 5 6 4 4 4 5 4 4 4
9 17 15 14 11 17 12 13 13 15 16 10 10 9 9 11 15 12 13 15 14 14 14 14 11 13 10 8 6 5 5 5 5 5 5 8 7 8 6 5 6 5 4 5 4 6 4 4 4
11 12 13 15 14 15 16 14 12 13 12 16 10 9 13 10 10 11 14 13 12 14 15 15 14 13 10 9 9 8 9 6 5 5 8 9 9 11 9 6 6 6 6 6 6 5 6 4 3
16 15 17 8 10 10 11 12 9 15 13 15 12 13 12 9 9 11 14 16 17 16 16 15 15 15 14 11 10 9 9 8 9 7 9 11 10 10 11 10 7 7 5 7 7 6 4 4 5
18 19 14 10 6 4 3 12 13 19 16 15 15 13 14 13 10 9 12 17 17 17 17 15 17 18 16 15 9 6 6 5 6 9 10 10 11 11 11 12 10 7 7 8 8 7 8 6 4
16 12 11 11 5 5 6 11 11 8 16 18 21 19 17 17 13 10 12 12 16 18 15 17 18 18 16 18 13 15 12 12 11 11 9 10 14 13 13 11 11 11 8 9 8 8 8 6 7
12 5 7 11 12 5 15 8 6 12 18 14 11 20 19 19 16 16 10 15 16 16 17 17 18 18 17 17 17 13 14 11 8 9 12 12 11 14 13 13 11 11 9 10 10 7 8 7 6
5 3 3 2 5 11 24 14 4 11 13 13 9 10 11 18 17 15 13 9 13 15 17 18 18 19 19 18 20 21 19 15 12 11 10 9 10 10 15 14 13 13 12 12 10 10 8 8 8
8 10 5 5 7 8 5 9 20 9 9 10 8 8 8 5 8 11 12 12 11 11 14 14 18 21 21 22 22 22 22 19 19 16 12 13 10 10 13 16 14 13 15 14 11 10 11 11 9
14 15 5 5 5 5 11 8 13 15 21 21 16 15 11 8 5 6 5 8 8 7 8 10 13 16 17 20 22 21 22 15 15 17 13 12 12 12 14 15 16 16 15 13 11 9 10 10 9
10 14 12 5 2 1 5 6 9 9 9 6 8 7 6 5 7 9 7 6 5 4 9 12 14 15 17 19 17 19 19 21 18 19 15 13 13 11 13 15 16 16 15 14 12 10 11 10 9
7 9 7 5 9 10 6 7 9 1 4 7 9 9 7 6 7 6 6 6 7 8 7 9 9 12 14 15 16 17 19 19 19 16 18 18 15 14 13 15 15 15 14 13 12 11 10 11 8
9 8 2 1 4 4 2 6 7 4 2 5 7 8 10 9 9 9 8 8 9 7 6 7 8 10 11 13 15 16 16 18 17 17 17 17 15 15 16 14 15 14 14 13 13 13 10 12 10
11 14 13 4 5 3 3 8 7 6 6 5 5 8 7 3 6 7 6 6 8 9 7 8 8 8 10 12 12 15 15 16 18 18 19 16 17 15 15 14 14 14 13 13 14 13 10 12 11
Wind_Direction
309 320 301 339 322 121 75 74 338 106 96 50 34 25 17 29 13 87 169 113 125 113 119 123 129 120 113 107 102 101 102 102 102 102 107 109 103 97 91 99 95 92 95 94 93 92 94 91 89
298 313 306 268 285 22 75 134 104 54 78 64 93 297 34 91 66 125 89 124 121 123 136 129 126 122 119 115 109 111 107 100 105 103 112 113 97 93 85 103 97 98 98 96 96 99 98 97 97
299 300 306 345 274 43 76 55 100 82 38 319 117 55 10 79 102 148 134 136 132 136 117 123 129 129 125 121 112 108 105 103 104 103 109 115 95 94 97 102 98 97 97 98 102 106 104 102 98
303 337 274 239 330 75 33 70 110 123 50 340 18 90 89 11 140 113 151 138 130 114 115 126 128 130 130 127 126 124 121 110 108 109 111 108 106 109 92 103 102 103 104 107 109 107 106 102 99
286 270 264 273 305 102 102 52 131 162 131 136 303 101 91 105 90 127 152 144 127 117 119 125 129 134 138 140 133 131 127 119 113 107 109 114 99 104 98 104 110 107 111 113 111 108 107 101 94
296 140 275 262 219 120 99 71 157 170 125 98 174 307 89 123 132 150 157 153 138 122 130 131 135 133 137 139 141 141 139 131 124 116 129 138 141 116 111 107 109 116 117 117 114 110 108 97 90
267 270 271 297 310 354 100 83 271 172 147 173 68 208 113 146 150 150 161 149 148 122 131 134 145 138 135 145 153 153 149 142 138 134 120 114 143 146 127 114 132 111 117 121 114 109 107 109 104
303 268 249 271 261 279 96 101 42 332 63 66 95 167 125 153 139 152 167 167 139 132 149 152 149 156 153 152 156 160 157 149 142 133 128 114 100 110 97 147 136 107 121 116 119 123 120 110 95
279 277 242 232 222 259 140 195 109 101 238 174 147 23 72 123 138 155 177 163 147 146 173 162 147 167 163 154 144 141 158 147 137 129 143 147 148 170 162 81 122 111 105 129 132 132 125 133 155
257 252 258 259 264 272 285 137 277 175 226 193 166 111 130 133 157 176 178 181 168 156 179 160 150 182 160 164 146 153 145 149 149 149 168 188 171 128 159 110 104 116 118 120 141 140 173 203 208
201 238 285 291 294 272 286 285 254 251 246 253 170 170 162 159 177 186 191 188 180 167 171 163 162 172 165 128 153 160 151 164 167 162 185 225 131 138 138 130 155 158 184 181 162 178 221 230 234
253 264 266 283 23 15 330 308 274 235 251 297 128 86 160 169 186 196 188 195 185 174 171 170 167 167 169 149 157 178 157 180 184 177 183 187 142 155 193 162 188 193 184 219 192 196 219 232 281
254 244 279 263 173 212 298 282 287 274 280 264 266 164 170 172 201 201 188 189 185 204 195 169 171 169 168 178 178 189 169 171 178 179 175 164 177 179 194 186 181 190 187 222 196 226 206 230 257
241 239 250 272 230 220 232 262 261 247 254 261 255 195 204 181 188 214 201 187 195 184 210 169 178 174 171 177 181 192 174 172 181 185 180 186 185 182 187 191 196 202 197 208 212 216 212 221 224
262 255 277 255 260 238 258 267 242 256 259 275 244 224 195 202 181 198 209 192 181 186 201 206 180 178 179 177 192 191 180 172 180 194 181 182 204 193 183 191 195 204 204 209 218 250 248 270 257
262 243 249 233 249 240 174 256 285 273 233 237 250 243 205 207 192 190 190 191 180 195 208 193 203 183 183 182 182 184 183 180 180 182 179 181 194 214 197 193 197 202 199 182 203 215 234 229 233
224 240 235 246 249 229 202 250 254 266 245 238 242 234 215 197 195 191 182 186 192 197 201 203 193 183 185 189 184 182 190 181 185 184 182 188 191 202 208 199 203 199 195 190 194 222 203 227 249
207 229 247 266 239 236 239 232 251 269 287 276 246 248 234 202 200 189 183 186 188 197 204 202 186 184 187 191 183 179 183 191 183 190 187 190 190 196 204 211 203 196 185 199 203 212 232 203 226
247 251 235 232 236 262 227 241 258 264 248 266 258 262 257 221 201 180 189 180 184 192 203 201 189 182 183 195 195 196 196 192 200 195 192 191 194 193 201 205 206 197 190 194 204 201 209 247 227
247 255 259 275 282 239 243 254 267 268 257 255 249 245 245 254 213 190 187 182 187 191 201 199 192 187 191 198 197 203 198 199 202 201 208 201 195 195 200 203 208 200 185 199 208 201 204 212 199
231 236 249 261 311 305 316 277 265 266 262 262 254 246 256 232 232 207 196 189 187 193 196 197 197 195 194 196 195 194 197 196 194 206 210 208 201 201 202 202 204 204 194 205 207 198 197 218 228
235 230 252 261 304 258 162 273 258 258 256 241 246 241 242 248 242 230 200 193 196 201 194 200 204 203 198 194 195 200 203 202 208 212 212 204 202 206 206 206 202 204 207 211 204 201 208 184 215
241 214 247 250 253 285 267 278 276 210 257 269 260 233 233 233 239 238 216 198 201 194 198 203 204 205 203 196 200 201 210 213 201 213 206 209 202 204 206 208 209 208 212 217 206 200 200 202 205
141 220 129 327 259 232 239 217 239 229 249 255 271 250 228 226 230 227 239 220 204 207 206 199 199 205 202 201 203 206 207 203 207 207 205 204 202 199 206 207 208 214 214 216 212 206 199 204 217
208 169 231 206 223 234 202 210 243 264 267 281 289 295 302 327 239 227 225 233 226 203 213 211 202 206 203 203 204 207 212 206 211 208 205 202 201 205 204 203 207 212 214 215 210 203 207 213 221
198 196 200 215 210 263 156 220 244 222 235 252 260 276 279 296 311 312 294 254 214 200 201 210 218 225 218 210 211 209 208 212 213 213 207 212 207 205 202 202 208 213 213 213 208 205 215 218 218
180 216 221 274 134 217 222 239 297 270 265 257 254 275 317 314 292 271 271 280 240 210 223 199 209 214 215 219 218 217 212 210 211 212 212 212 211 203 200 200 202 207 209 208 202 206 214 205 202
216 140 185 190 221 230 237 240 246 58 249 294 270 258 295 294 296 291 289 301 290 250 240 214 212 217 223 228 221 222 219 219 219 212 213 211 211 204 197 198 198 201 204 202 200 209 204 194 197
194 198 169 182 219 233 231 233 221 229 28 19 25 21 17 18 15 351 343 325 290 271 242 236 226 221 225 223 227 223 222 222 219 219 218 214 208 200 201 197 198 197 198 197 200 208 189 194 197
212 221 205 205 207 233 317 261 296 331 80 65 346 339 324 357 334 332 310 303 309 302 281 258 254 240 232 234 236 229 222 220 220 219 218 212 208 203 197 194 192 194 194 197 203 203 192 191 195